Volver al catálogo

USA 411

ActivoMilitarVLEO
NORAD 61032·PAYLOAD·🇺🇸 United States

Lanzado Sep 6, 2024 desde Vandenberg Space Force Base

Loading…

Próximos Pases (próximas 24 horas)

TLE

ObsoletoSource: Mike McCants

Época: Sep 5, 2026, 20:58 UTC

1 61032U 24160M   26248.87381420 0.00000000  00000-0  00000-0 0    03
2 61032  70.0205 154.2192 0003000 210.7039 149.2961 14.96713564    05

Sigue USA 411 en tiempo real con AllMySat

Download on the App Store